Change the Weather History Date:

Friday, September 20, 2013

  Actual Average Record
Temperature  
Mean Temperature 59 °F -  
Max Temperature 65 °F 60 °F 75 °F (1998)
Min Temperature 53 °F 47 °F 44 °F (2000)
Degree Days  
Heating Degree Days 6    
Growing Degree Days 9 (Base 50)    
Moisture  
Dew Point 51 °F    
Average Humidity 75    
Maximum Humidity 88    
Minimum Humidity 54    
Precipitation  
Precipitation 0.00 in 0.12 in - ()
Sea Level Pressure  
Sea Level Pressure 30.02 in    
Wind  
Wind Speed 8 mph ()    
Max Wind Speed 16 mph    
Max Gust Speed -    
Visibility 6.8 miles    
Events      
Averages and records for this station are not official NWS values.
T = Trace of Precipitation, MM = Missing Value Source: Averaged Metar Reports

Daily Weather History Graph

Daily Weather History Graph

Search for Another Location

Airport or City:

Trip Planner

Search our weather history database for the weather conditions in past years. The results will help you decide how hot, cold, wet, or windy it might be!

Date:

Astronomy

Sep. 20, 2013 Rise Set
Actual Time 7:18 AM IST 7:38 PM IST
Civil Twilight 6:43 AM IST 8:12 PM IST
Nautical Twilight 6:03 AM IST 8:53 PM IST
Astronomical Twilight 5:20 AM IST 9:36 PM IST
Moon 7:47 PM IST (9/20) 8:32 AM IST (9/20)
Length of Visible Light 13h 29m
Length of Day
12h 20m
Full, 99% of the Moon is Illuminated
Sep 20
Full
Sep 27
Last Quarter
Oct 5
New
Oct 12
First Quarter
Oct 19
Full

Hourly Weather History & Observations

Time (IST) Temp. Dew Point Humidity Pressure Visibility Wind Dir Wind Speed Gust Speed Precip Events Conditions
12:00 AM 55.4 °F 46.4 °F 72% 29.98 in 6.2 mi WNW 6.9 mph - N/A   Mostly Cloudy
12:30 AM 53.6 °F 48.2 °F 82% 29.98 in 6.2 mi West 4.6 mph - N/A   Mostly Cloudy
1:00 AM 53.6 °F 48.2 °F 82% 30.01 in 6.2 mi WSW 4.6 mph - N/A   Mostly Cloudy
1:30 AM 53.6 °F 50.0 °F 88% 30.01 in 6.2 mi WSW 5.8 mph - N/A   Mostly Cloudy
2:00 AM 53.6 °F 50.0 °F 88% 30.01 in 6.2 mi WSW 4.6 mph - N/A   Mostly Cloudy
2:30 AM 53.6 °F 50.0 °F 88% 30.01 in 6.2 mi WSW 5.8 mph - N/A   Mostly Cloudy
3:00 AM 53.6 °F 48.2 °F 82% 30.01 in 6.2 mi WSW 4.6 mph - N/A   Mostly Cloudy
3:30 AM 53.6 °F 50.0 °F 88% 30.01 in 6.2 mi SW 4.6 mph - N/A   Mostly Cloudy
4:00 AM 53.6 °F 48.2 °F 82% 30.01 in 6.2 mi WSW 5.8 mph - N/A   Mostly Cloudy
4:30 AM 53.6 °F 48.2 °F 82% 30.01 in 6.2 mi South 4.6 mph - N/A   Mostly Cloudy
5:00 AM 53.6 °F 48.2 °F 82% 30.01 in 6.2 mi SSW 8.1 mph - N/A   Mostly Cloudy
5:30 AM 53.6 °F 48.2 °F 82% 30.01 in 6.2 mi South 8.1 mph - N/A   Mostly Cloudy
6:00 AM 55.4 °F 48.2 °F 77% 30.01 in 6.2 mi SSW 9.2 mph - N/A   Mostly Cloudy
6:30 AM 55.4 °F 48.2 °F 77% 30.01 in 6.2 mi SSW 9.2 mph - N/A   Mostly Cloudy
7:00 AM 55 °F 47 °F 68% 30.03 in 12 mi South 8.9 mph - -   Mostly Cloudy
7:00 AM 55.4 °F 48.2 °F 77% 30.01 in 6.2 mi South 8.1 mph - N/A   Mostly Cloudy
7:30 AM 55.4 °F 48.2 °F 77% 30.01 in 6.2 mi South 10.4 mph - N/A   Mostly Cloudy
8:00 AM 53.6 °F 48.2 °F 82% 30.04 in 6.2 mi South 8.1 mph - N/A   Mostly Cloudy
8:30 AM 55.4 °F 46.4 °F 72% 30.04 in 6.2 mi South 9.2 mph - N/A   Mostly Cloudy
9:00 AM 55.4 °F 48.2 °F 77% 30.04 in 6.2 mi SSE 10.4 mph - N/A   Mostly Cloudy
9:30 AM 55.4 °F 48.2 °F 77% 30.04 in 6.2 mi South 10.4 mph - N/A   Mostly Cloudy
10:00 AM 57.2 °F 48.2 °F 72% 30.04 in 6.2 mi SSE 11.5 mph - N/A   Mostly Cloudy
10:30 AM 57.2 °F 50.0 °F 77% 30.04 in 6.2 mi South 10.4 mph - N/A   Mostly Cloudy
11:00 AM 59.0 °F 48.2 °F 67% 30.04 in 6.2 mi South 10.4 mph - N/A   Mostly Cloudy
11:30 AM 60.8 °F 48.2 °F 63% 30.04 in 6.2 mi SSE 10.4 mph - N/A   Mostly Cloudy
12:00 PM 60.8 °F 48.2 °F 63% 30.04 in 6.2 mi South 9.2 mph - N/A   Mostly Cloudy
12:30 PM 62.6 °F 50.0 °F 63% 30.04 in 6.2 mi South 10.4 mph - N/A   Mostly Cloudy
1:00 PM 62 °F 49 °F 54% 30.06 in 19 mi South 8.9 mph - -   Scattered Clouds
1:00 PM 62.6 °F 50.0 °F 63% 30.04 in 6.2 mi South 9.2 mph - N/A   Scattered Clouds
1:30 PM 64.4 °F 50.0 °F 59% 30.04 in 6.2 mi South 9.2 mph - N/A   Scattered Clouds
2:00 PM 64.4 °F 50.0 °F 59% 30.04 in 6.2 mi South 9.2 mph - N/A   Scattered Clouds
2:30 PM 66.2 °F 50.0 °F 56% 30.04 in 6.2 mi South 9.2 mph - N/A   Mostly Cloudy
3:00 PM 64.4 °F 50.0 °F 59% 30.04 in 6.2 mi SSE 10.4 mph - N/A   Mostly Cloudy
3:30 PM 64.4 °F 51.8 °F 64% 30.04 in 6.2 mi SSE 11.5 mph - N/A   Mostly Cloudy
4:00 PM 64.4 °F 51.8 °F 64% 30.04 in 6.2 mi SSE 12.7 mph - N/A   Mostly Cloudy
4:30 PM 64.4 °F 53.6 °F 68% 30.04 in 6.2 mi SSE 16.1 mph - N/A   Mostly Cloudy
5:00 PM 64.4 °F 53.6 °F 68% 30.01 in 6.2 mi SE 15.0 mph - N/A   Mostly Cloudy
5:30 PM 62.6 °F 53.6 °F 72% 30.01 in 6.2 mi SSE 11.5 mph - N/A   Mostly Cloudy
6:00 PM 62.6 °F 53.6 °F 72% 30.01 in 6.2 mi SSE 12.7 mph - N/A   Mostly Cloudy
6:30 PM 62.6 °F 53.6 °F 72% 30.01 in 6.2 mi SSE 11.5 mph - N/A   Mostly Cloudy
7:00 PM 61 °F 54 °F 70% 30.03 in 19 mi SSE 13.4 mph - -   Mostly Cloudy
7:00 PM 60.8 °F 53.6 °F 77% 30.01 in 6.2 mi SSE 13.8 mph - N/A   Mostly Cloudy
7:30 PM 60.8 °F 53.6 °F 77% 30.01 in 6.2 mi SE 12.7 mph - N/A   Overcast
8:00 PM 59.0 °F 53.6 °F 82% 30.04 in 6.2 mi SE 12.7 mph - N/A   Overcast
8:30 PM 59.0 °F 53.6 °F 82% 30.01 in 6.2 mi SE 16.1 mph - N/A   Mostly Cloudy
9:00 PM 59.0 °F 55.4 °F 88% 30.01 in 6.2 mi SE 13.8 mph - N/A   Overcast
9:30 PM 59.0 °F 55.4 °F 88% 30.04 in 6.2 mi SE 11.5 mph - N/A   Overcast
10:00 PM 59.0 °F 55.4 °F 88% 30.04 in 6.2 mi SE 11.5 mph - N/A   Mostly Cloudy
10:30 PM 59.0 °F 55.4 °F 88% 30.04 in 6.2 mi SE 10.4 mph - N/A   Overcast
11:00 PM 59.0 °F 55.4 °F 88% 30.04 in 6.2 mi SE 9.2 mph - N/A   Overcast
11:30 PM 59.0 °F 55.4 °F 88% 30.01 in 6.2 mi SE 9.2 mph - N/A   Overcast